STARLINK-6234, 57331

Orbit data source: Space-Track

STARLINK-6234, 57331 is a payload satellite owned by SpaceX/Seattle (US) in LEO that was launched on Sun, 16 Jul 2023 UTC via an FALCON 9 launch vehicle from the Air Force Eastern Test Range (AFETR). Payload-class satellites include a variety of spacecraft equipped with specific instruments for various scientific and technological missions. These include communications satellites like Starlink; space stations such as the ISS; scientific satellites like the Hubble; Earth observation satellites from companies like Planet Labs, Umbra, and HawkEye 360; GPS; miniature CubeSats for education and research; and military/defense satellites.

Loading next visibility...
Identifier
57331, 2023-099D
Orbit
LEO
Country
Flag of USUS
Related business
Manufacturer
SpaceX/Seattle
Mission
Operational Commercial Communications
Bus & Motor
STARLINK, Unknown motor
Mass
305 kg wet, ~290 kg dry
Launch date (UTC)
2023-07-16 (3 years ago)
Launch vehicle
FALCON 9
Launch site
Air Force Eastern Test Range (AFETR)
Object type
Payload
Rocket body
Debris
Shape & HBR
Box + 1 Pan, 10.1 m
Radar Cross Section
11.087 m², Large (>1 m²)

Expand to show TLE details & history
Last TLE update: 2 days ago

TLE from 2 days ago
0 STARLINK-6234
1 57331U 23099D   26171.31938870  .00001646  00000-0  69307-4 0  9994
2 57331  43.0045  32.6937 0001576 269.2158  90.8513 15.27590850161779
Epoch: 2026-06-20T07:39Z
TLE epoch observation values (Epoch: 2026-06-20T07:39:55.183Z)
Latitude
-0.00004°
Longitude
9.17802°
Altitude
482.809 km
Speed
7.626 km/s
True Right ascension
02h 10m 46s
True Declination
0° 00' 00"
Sunlit
Object was in daylight at epoch
Visualization orbit readout
Latitude
Unknown
Longitude
Unknown
Altitude
Unknown
Speed
Unknown
Apparent Right ascension
Unknown
Apparent Declination
Unknown
Sunlit
N/A
Visualization observer readout
Local Sidereal Time
21:23:57
Azimuth
Unknown
Elevation
Unknown
Doppler factor
Unknown
Orbital elements
Apogee altitude
486.043 km
Perigee altitude
483.879 km
Semi-major axis
6,863.098 km
Eccentricity
0.00016
Inclination
43.0045°
RAAN
32.6937°
Arg. of periapsis
269.2158°
True anomaly
90.86936°
Mean anomaly
90.8513°
Eccentric anomaly
90.86033°
Mean motion
3.81736 °/min
Orbital period
94.31 mins
BSTAR
0.000069307
Loading maneuver chart data...
Computing Atmospheric mass density...
Loading historical data...
Loading historical data...
Loading historical data...
Loading historical data...
Loading historical data...
Loading historical data...
Loading historical data...

Documentation

Showing up to 5 results
|